SCP
0 0 0 0 0 0 0 0 0 0 0 0 0 0 0 0 0 0 0 0 0 0 0 0 0 0 0 0 0 0 0 0 0 0 0 0 0 0 0 0 0 0 0 0 -0 0 0 0 0 0 0 0 0 0
0 0 0 0 0 0 0 0 0 0 0 0 0 0 0 0 0 0 0 0 0 0 0 0 0 0 0 0 0 0 0 0 0 0 0 0 0 0 0 0 0 0 0 0 0 0 0 0 0 0 0 0 0 0
0 0 0 0 0 0 0 0 0 0 0 0 0 0 0 0 0 0 0 0 0 0 0 0 0 0 0 0 0 0 0 0 0 0 0 0 0 0 0 0 0 0 0 0 0 0 0 0 0 0 0 0 0 0
0 0 0 0 0 0 0 0 0 0 0 0 0 0 0 0 0 0 0 0 0 0 0 0 0 0 0 0 0 0 0 0 0 0 0 0 0 0 0 0 0 0 0 0 0 0 0 0 0 0 0 0 0 0
0 0 0 0 0 0 0 0 0 0 0 0 0 0 0 0 0 0 0 0 0 0 0 0 0 0 0 0 0 0 0 0 0 0 0 0 0 0 0 0 0 0 0 0 0 0 1 0 1 0 1 1 1 0
0 0 0 0 0 0 0 0 0 0 0 0 0 0 0 0 0 0 0 0 0 0 0 0 0 0 0 0 0 0 0 0 0 0 0 0 0 0 0 0 0 0 0 0 0 0 0 0 0 0 0 0 0 0
0 0 0 0 0 0 0 0 0 0 0 0 0 0 0 0 0 0 0 0 0 0 0 0 0 0 0 0 0 0 0 0 0 0 0 0 0 0 0 0 0 0 0 0 0 0 0 0 0 0 0 0 0 0
0 0 0 -0 0 0 0 0 0 0 0 0 0 0 0 0 0 0 0 0 0 0 0 0 0 0 0 0 0 0 0 0 0 0 0 0 0 0 0 0 0 0 0 0 0 0 0 0 0 0 0 0 0 0
0 0 0 0 0 0 0 0 0 0 0 0 0 0 0 0 0 0 0 0 0 0 0 0 0 0 0 0 0 0 0 0 0 0 0 0 0 0 0 0 0 0 0 0 0 0 0 0 0 0 0 0 0 0
0 0 0 0 0 0 0 0 0 0 0 0 0 0 0 0 0 0 0 0 0 0 0 0 0 0 0 0 0 0 0 0 0 0 0 0 0 0 0 0 0 0 0 0 0 0 0 0 0 0 0 0 0 0
0 0 0 0 0 0 0 0 0 0 0 0 0 0 0 0 0 0 0 0 0 0 0 0 0 0 0 0 0 0 0 0 0 0 0 0 0 0 0 0 0 0 0 0 0 0 0 0 0 0 0 0 0 0
0 0 0 0 0 0 0 0 0 0 0 0 0 0 0 0 0 0 0 0 0 0 0 0 0 0 0 0 0 0 0 0 0 0 0 0 0 0 0 0 0 0 0 0 0 0 0 0 0 0 0 0 0 0
0 0 0 0 0 0 0 0 0 0 0 0 0 0 0 0 0 0 0 0 0 0 0 0 0 0 0 0 0 0 0 0 0 0 0 0 0 0 0 0 0 0 0 0 0 0 0 0 0 0 0 0 0 0
0 0 0 0 0 0 0 0 0 0 0 0 0 1 0 0 0 0 0 0 0 0 0 0 0 0 0 0 0 0 0 0 0 0 0 0 0 0 0 0 0 0 0 0 0 0 0 0 0 0 0 0 0 0
0 0 0 0 0 0 0 0 0 0 0 0 0 0 0 0 0 0 0 0 0 0 0 0 0 0 0 0 0 0 0 0 0 0 0 0 0 0 0 0 0 0 0 0 0 0 0 0 0 0 0 0 0 0
0 0 0 0 0 0 0 0 0 0 0 0 0 0 0 0 0 0 0 0 0 0 0 0 0 0 0 0 0 0 0 0 0 0 0 0 0 0 0 0 0 0 0 0 0 0 0 0 0 0 0 0 -0 0
0 0 0 0 0 0 0 0 0 0 0 0 0 0 0 0 0 0 0 0 0 0 0 0 0 0 0 0 0 0 0 0 0 0 0 0 0 0 0 0 0 0 0 0 0 0 0 0 0 0 0 0 0 0
0 0 0 0 0 0 0 0 0 0 0 0 0 0 0 0 0 0 0 0 0 0 0 0 0 0 0 0 0 0 0 0 0 0 0 0 0 0 0 0 0 0 0 0 0 0 0 0 0 0 0 0 0 0
0 0 0 0 0 0 0 0 0 0 0 0 0 0 0 0 0 0 0 0 0 0 0 0 0 0 0 0 0 0 0 0 0 0 0 0 0 0 0 0 0 0 0 0 0 0 0 0 0 0 0 0 0 0
0 0 0 0 0 0 0 0 0 0 0 0 0 0 0 0 0 0 0 0 0 0 0 0 0 0 0 0 0 0 0 0 0 0 0 0 0 0 0 0 0 0 0 0 0 0 0 0 0 -0 0 0 0 0
0 0 0 0 0 0 0 0 0 0 0 0 0 0 0 0 0 0 0 0 0 0 0 0 0 0 0 0 0 0 0 0 0 0 0 0 0 0 0 0 0 0 0 0 0 0 0 -0 -0 0 0 0 0 0
0 0 0 0 0 0 0 0 0 0 0 0 0 -0 -0 -0 -0 0 0 0 0 0 0 0 0 0 0 0 0 0 0 0 0 0 0 0 0 0 0 0 0 0 0 0 0 0 0 0 -0 0 0 0 0 0
0 0 0 0 0 0 0 0 0 0 0 0 0 0 0 0 0 0 0 0 0 0 0 0 0 0 0 -0 0 0 0 0 0 0 0 0 0 0 0 0 0 0 0 0 0 0 0 0 0 0 0 0 0 0
0 0 0 0 -0 0 0 0 0 -0 -0 0 0 -0 0 0 0 -0 -0 -0 -0 -0 -0 -0 0 0 0 0 0 0 0 0 0 0 0 0 0 0 0 0 0 0 0 0 0 0 0 0 0 0 0 0 0 0
0 -0 -0 -0 -0 -0 -0 -0 0 -0 0 0 -0 -0 -0 0 -0 0 0 0 0 -0 0 0 0 0 0 0 -0 -0 0 0 0 0 0 0 0 0 0 0 0 0 0 0 0 0 0 0 0 0 0 0 -0 -0
-0 -0 -0 -0 -0 -0 -0 -0 -0 0 -0 -0 -0 0 -0 0 0 0 0 0 0 0 0 0 0 0 0 0 0 0 0 0 0 0 0 0 0 0 0 0 0 0 0 0 0 0 0 0 0 0 0 0 -0 0
0 0 0 0 0 0 0 0 -0 -0 -0 -0 0 0 0 0 0 0 0 0 0 0 0 0 0 0 0 -0 -0 -0 -0 0 0 0 0 0 0 0 0 0 0 0 0 0 0 -0 0 0 0 0 0 0 -0 -0
0 0 0 0 0 0 -0 -0 -0 -0 0 0 0 0 0 0 0 0 0 0 0 0 0 -0 -0 0 0 -0 0 0 -0 0 -0 -0 -0 0 0 0 0 0 0 0 0 0 0 0 -0 0 0 -0 -0 0 -0 -0
0 0 0 0 0 0 0 0 -0 -0 0 0 0 0 0 0 0 0 0 0 -0 -0 -0 -0 -0 -0 -0 -0 -0 -0 0 0 0 0 0 0 0 0 0 0 0 0 0 0 0 0 0 0 0 0 0 0 0 0
0 0 0 0 0 0 0 0 0 -0 0 0 0 0 0 0 0 0 0 0 0 -0 -0 -0 -0 0 0 0 0 0 0 0 0 0 0 0 0 0 0 0 0 0 -0 0 0 0 0 0 0 0 0 0 0 0
0 0 0 0 0 0 0 -0 0 0 0 0 0 0 0 0 0 0 0 0 0 0 0 0 0 0 0 0 0 0 0 0 0 0 0 0 0 0 0 0 0 0 0 0 0 0 -0 -0 -0 0 0 0 0 0
0 0 0 0 0 0 0 0 0 0 0 0 0 0 0 0 0 0 0 0 0 0 0 0 0 0 0 0 0 0 0 0 0 0 0 0 0 0 0 0 0 0 0 0 0 0 0 0 -0 0 0 0 0 0
0 0 0 0 0 0 0 -0 0 0 0 0 0 0 0 0 0 0 0 0 0 0 0 0 0 0 0 0 0 0 0 0 0 0 0 0 0 0 0 0 0 0 0 0 0 0 -0 -0 -0 0 0 0 0 0
Wind_Speed_500mb
20 18 23 28 28 28 27 25 23 20 18 15 12 9 6 6 11 15 12 15 6 16 5 8 7 12 10 18 17 8 8 20 17 21 24 23 25 28 28 26 23 24 4 8 28 25 27 19 13 6 22 27 18 20
24 20 16 20 24 26 27 25 23 20 18 16 14 12 10 8 9 13 3 9 17 10 7 6 12 11 6 3 10 7 6 6 12 10 18 20 25 24 23 24 23 21 18 17 23 14 4 4 16 23 20 30 32 24
23 20 18 16 15 21 24 24 23 21 18 16 15 14 13 12 13 16 6 4 3 12 20 18 13 18 14 14 10 11 18 2 4 7 19 12 14 15 23 23 27 28 31 25 24 29 38 34 43 23 31 29 26 18
25 26 23 17 14 18 22 23 22 20 18 16 15 15 13 12 12 13 4 7 4 7 12 12 15 17 17 14 18 24 13 5 10 15 21 14 18 24 19 24 27 31 10 11 33 33 43 35 33 32 32 14 21 23
28 26 25 19 16 15 13 15 18 18 17 16 16 15 13 12 11 11 2 6 6 6 11 8 5 19 14 15 17 21 21 19 23 25 19 17 31 27 33 25 24 35 24 21 23 30 19 27 23 16 23 21 27 39
28 26 23 20 19 18 18 16 16 15 14 14 13 13 15 14 12 7 8 5 6 5 7 7 8 12 13 15 19 19 17 20 30 32 28 34 34 18 14 21 28 31 35 41 42 43 44 41 40 42 46 49 52 50
29 27 23 22 19 18 17 16 14 14 12 10 10 11 15 16 15 14 2 11 10 10 7 9 10 14 17 13 17 20 23 25 23 28 33 33 31 29 20 25 36 40 41 40 43 46 49 51 57 56 58 58 56 56
33 25 24 25 20 17 16 16 15 14 12 9 10 10 12 14 9 5 7 10 18 5 8 8 6 13 19 19 20 20 20 22 22 25 23 24 31 36 19 28 29 26 26 34 35 38 43 45 46 48 50 52 55 55
34 41 33 30 26 20 15 15 14 13 13 11 11 14 19 8 7 10 13 13 5 4 9 9 10 10 19 18 10 15 17 14 22 23 32 22 19 15 16 28 24 19 23 34 42 47 47 48 49 47 50 54 58 63
31 29 40 30 23 19 20 19 15 12 14 16 21 3 10 10 13 12 4 5 8 12 12 14 23 5 16 23 20 13 16 14 12 18 25 22 24 40 34 32 16 22 26 26 30 31 30 36 39 44 49 52 56 56
38 35 29 24 25 27 23 22 18 15 18 12 7 4 3 20 8 6 9 11 12 9 15 22 23 10 10 11 10 14 4 8 10 14 13 9 19 13 17 10 9 12 17 20 24 30 35 40 44 49 54 55 54 51
27 28 34 34 29 27 23 21 21 21 10 14 10 15 14 5 8 7 8 10 10 10 16 21 19 21 8 4 8 7 8 7 11 8 8 17 7 18 10 3 5 11 17 23 28 34 35 38 42 48 52 55 53 47
31 30 32 29 30 32 33 31 26 23 19 23 6 10 10 9 8 9 14 11 10 12 15 19 12 16 6 13 11 8 12 12 8 9 10 10 23 13 5 1 9 15 19 25 31 35 39 42 44 44 49 50 44 38
31 25 30 36 30 30 30 26 26 31 17 10 10 4 9 8 11 13 15 10 8 10 21 26 22 12 9 14 12 10 12 9 13 12 12 18 26 13 4 3 12 19 25 30 35 39 43 44 45 45 44 42 37 33
31 30 28 27 30 30 32 28 33 26 12 10 9 10 15 20 8 6 5 1 4 8 14 14 12 19 15 9 11 12 10 12 11 15 15 27 16 8 1 7 15 22 29 35 39 43 47 48 48 47 42 38 33 26
27 35 30 30 32 32 36 31 28 18 7 9 8 8 13 8 17 15 11 13 12 14 13 12 8 8 14 9 15 20 12 9 11 22 24 24 13 5 4 9 14 22 29 36 39 47 49 47 49 48 43 36 27 19
27 20 34 36 33 31 32 25 14 8 8 5 11 17 14 11 16 17 21 19 19 19 14 10 7 15 11 13 23 14 21 10 17 9 8 15 7 2 7 12 19 26 34 36 42 50 49 48 45 39 35 26 13 10
15 20 33 36 25 28 35 14 7 11 8 18 17 16 23 21 17 14 15 16 18 30 30 15 6 11 10 19 17 18 26 26 8 15 8 10 5 14 18 18 24 29 36 41 44 48 46 44 39 35 23 13 25 27
19 21 18 25 23 11 7 9 5 7 18 13 19 18 16 19 25 25 23 25 27 26 23 20 14 16 21 34 36 28 22 22 21 12 14 14 21 23 23 24 30 33 40 43 43 47 45 33 29 29 14 24 32 40
20 18 23 23 18 5 4 3 5 6 9 2 12 19 22 26 27 33 36 37 35 35 29 23 32 46 39 36 40 46 49 45 28 26 32 30 28 26 28 32 35 41 46 44 44 43 41 37 34 28 28 27 37 45
23 21 25 20 8 2 2 3 4 7 11 10 13 16 21 22 31 35 37 37 44 51 48 59 63 59 52 50 48 48 52 51 51 48 45 48 42 42 47 46 45 47 43 44 46 47 46 35 35 28 29 33 44 39
29 28 24 19 1 3 5 5 5 6 9 18 25 25 26 29 33 39 41 47 57 59 59 61 61 60 58 56 55 54 55 55 55 58 58 57 60 62 62 58 50 45 46 46 45 41 35 42 15 17 33 42 35 34
24 26 14 6 3 5 4 4 5 7 9 8 13 12 16 25 32 31 35 40 52 55 58 62 64 63 65 64 62 61 58 58 60 59 57 56 55 55 56 58 56 48 45 42 34 25 29 12 13 36 35 31 26 25
15 8 7 6 9 4 3 6 7 8 10 13 8 13 24 37 38 37 23 44 49 48 51 52 52 58 60 61 64 65 64 64 66 64 60 57 56 54 52 51 46 42 40 36 28 21 13 21 36 28 22 26 25 22
4 5 6 8 7 6 7 8 12 10 14 19 19 20 18 17 14 24 33 47 40 33 32 27 29 32 36 45 52 54 50 53 57 59 57 54 52 50 50 46 42 40 34 27 16 18 34 45 28 19 24 26 29 22
4 11 11 10 14 11 9 7 6 8 15 16 12 14 10 8 9 13 15 19 18 19 14 20 30 40 46 46 43 40 40 38 48 51 51 50 49 49 48 43 39 34 30 23 23 37 39 39 22 19 23 18 27 23
6 10 17 16 16 17 13 22 30 23 18 8 10 10 6 8 11 6 17 29 48 52 46 48 47 47 51 51 49 47 45 44 37 47 43 43 47 44 43 41 36 30 26 24 12 42 43 35 26 24 23 22 25 21
12 11 14 18 18 21 21 25 16 14 6 9 5 5 7 8 8 29 46 63 55 48 47 51 54 53 48 43 41 39 35 37 38 36 37 34 38 40 39 36 32 31 24 30 35 44 40 42 37 35 28 27 27 21
10 12 17 23 27 24 17 11 13 16 18 7 6 6 10 17 49 60 52 52 43 38 35 27 15 14 17 19 28 31 29 34 38 40 44 43 40 40 35 32 37 38 34 28 33 45 47 38 38 32 30 29 26 22
18 15 13 11 19 11 18 18 26 28 30 27 18 21 35 48 39 31 37 52 51 41 27 13 15 15 13 9 15 22 25 27 31 34 37 39 31 26 27 33 29 28 27 54 54 33 38 35 35 32 32 30 27 22
13 9 10 14 14 26 27 27 27 25 24 15 13 28 35 36 35 34 50 63 50 31 18 6 13 16 13 10 14 12 19 19 22 21 22 19 23 20 20 24 28 34 54 54 32 30 28 30 32 36 35 30 28 22
9 11 9 8 25 26 29 15 11 7 5 5 7 29 35 17 13 38 62 69 53 25 16 12 10 13 4 5 2 4 14 16 17 27 31 28 21 23 28 29 35 48 50 38 24 29 35 36 35 32 30 28 24 20
11 17 17 13 11 10 15 10 4 3 4 7 10 22 24 21 13 31 60 72 64 51 25 9 17 22 27 32 35 32 28 21 9 12 18 33 27 26 28 38 44 52 45 25 28 31 30 29 29 28 25 24 22 20
Wind_Direction_500mb
218 223 221 220 217 215 212 212 214 215 222 222 224 221 210 177 171 158 245 209 171 247 131 207 257 240 233 244 249 93 214 217 242 239 254 252 253 260 265 281 226 226 246 338 253 291 284 63 108 248 283 310 299 291
210 217 222 211 214 213 211 209 213 217 218 226 226 225 215 198 164 153 181 245 207 235 17 218 218 217 215 346 292 171 320 317 356 258 236 255 265 264 272 269 239 250 209 279 302 207 343 61 284 303 276 281 291 294
202 208 212 211 219 201 204 209 211 216 217 216 227 227 219 205 188 175 168 269 217 250 250 232 240 224 230 236 237 266 218 25 235 310 309 298 271 287 275 271 272 269 261 255 266 269 285 284 285 262 272 270 267 280
209 205 205 205 221 205 198 206 214 217 219 215 218 227 224 211 195 185 150 255 203 278 270 150 216 243 233 226 230 233 259 287 269 271 270 269 266 255 271 290 287 289 326 229 246 272 277 282 304 356 275 255 249 279
197 193 192 202 205 202 203 208 209 212 220 217 213 218 219 211 199 193 197 247 227 210 321 100 215 218 228 229 225 232 236 241 249 243 236 250 262 278 277 281 277 280 278 279 276 304 326 298 332 332 319 307 286 287
192 193 198 195 197 200 205 209 208 208 214 221 214 211 210 198 184 150 210 255 230 215 264 237 175 215 220 216 216 216 218 230 237 248 250 259 259 274 267 256 264 279 266 271 287 283 282 290 287 291 291 289 284 286
195 198 197 186 190 194 203 208 204 201 208 213 192 188 196 188 166 214 279 190 224 163 235 239 206 189 195 207 214 218 220 231 238 251 246 258 259 215 257 264 274 279 284 282 281 287 285 279 285 289 288 285 283 283
192 184 186 192 199 192 189 190 189 192 190 191 174 157 170 173 161 167 218 154 138 194 232 260 175 185 191 206 202 210 214 214 229 238 250 241 246 241 253 263 273 271 270 275 272 275 278 284 287 288 288 288 285 279
199 192 181 178 176 179 185 177 176 172 171 164 139 134 130 136 184 203 204 180 218 218 276 228 221 187 173 216 202 177 229 218 227 226 234 241 236 235 251 242 254 280 304 306 298 290 289 293 292 294 297 295 287 282
202 187 175 176 194 196 186 182 182 167 155 148 142 126 168 180 199 149 141 175 211 217 229 254 244 196 195 190 202 229 181 237 238 219 229 234 244 252 250 259 274 283 290 293 291 292 302 305 303 305 304 297 290 292
188 184 181 179 187 194 189 188 184 166 151 137 171 132 156 147 122 187 200 212 199 232 215 225 235 221 208 225 232 194 272 251 238 239 216 242 244 218 188 217 256 285 290 293 294 294 293 295 301 307 308 304 296 292
189 196 194 201 201 191 189 184 178 160 172 181 141 123 143 188 200 180 218 210 218 233 178 203 195 217 131 196 259 151 244 239 245 131 223 240 137 133 148 160 281 295 301 305 304 304 306 302 299 305 310 309 301 294
186 193 184 178 180 183 181 178 177 170 164 146 138 165 182 184 187 209 195 201 207 196 163 165 147 172 138 209 216 222 222 240 233 233 235 271 123 147 136 274 302 306 315 315 316 312 308 303 298 301 309 314 309 292
171 172 168 176 175 177 171 174 169 161 142 182 169 156 223 182 235 201 242 242 130 160 168 184 153 169 199 190 217 210 225 271 228 211 213 239 187 152 178 325 319 325 325 320 317 319 317 312 302 299 309 313 309 291
174 171 166 165 168 174 173 170 169 157 174 190 200 217 209 233 264 311 34 269 152 136 186 183 179 201 196 212 209 230 194 230 204 233 211 132 133 145 118 341 332 331 327 324 321 318 317 314 307 298 303 306 305 284
168 152 156 165 169 179 162 161 162 182 198 205 229 249 238 276 241 217 215 207 188 197 199 230 216 219 205 228 209 207 222 238 209 206 137 139 137 125 348 329 334 332 328 324 322 323 319 315 307 295 295 298 297 264
161 178 179 173 172 179 167 153 159 183 211 244 231 234 263 297 281 258 227 195 197 210 206 213 238 215 250 241 232 238 240 269 69 108 148 115 140 257 308 330 338 337 332 328 323 328 323 321 314 297 284 284 272 200
116 155 171 166 170 161 160 148 176 180 218 228 237 228 222 240 270 240 207 200 206 220 231 225 273 231 240 229 227 234 253 270 219 221 226 152 226 279 290 306 318 322 327 325 325 330 328 328 321 314 285 240 210 192
139 155 156 141 153 114 132 173 185 231 226 235 232 240 239 238 237 239 242 222 221 236 232 227 238 239 239 256 275 276 253 258 274 249 274 273 265 266 281 297 307 308 315 318 320 328 327 324 327 315 259 248 222 190
142 153 162 164 161 169 141 189 202 248 269 228 256 255 248 244 240 234 233 231 227 227 235 237 245 246 252 254 253 254 261 268 260 266 262 259 264 273 287 300 304 307 306 309 313 321 324 314 309 301 285 260 207 182
147 144 160 165 210 254 267 154 227 258 301 281 269 260 256 242 235 239 239 232 228 231 235 238 246 252 257 262 264 264 265 264 267 267 274 282 279 277 287 290 295 299 298 303 311 314 316 310 304 292 254 201 181 165
161 167 168 176 189 242 263 241 258 280 263 265 275 251 256 256 245 240 240 234 237 241 243 249 253 258 261 257 255 255 256 257 259 263 268 271 273 271 271 275 280 289 292 296 307 307 311 306 281 226 180 153 153 148
160 186 166 173 219 219 268 249 250 262 252 247 259 268 272 265 254 254 250 257 256 253 254 255 256 257 261 264 262 259 254 251 253 254 257 258 261 263 264 264 266 273 281 290 302 306 307 272 201 164 155 162 172 179
136 146 180 200 218 238 234 233 238 269 277 268 262 270 280 283 281 264 262 262 265 270 269 263 254 252 254 253 253 255 253 249 250 252 253 256 258 260 262 259 255 256 267 282 283 295 221 167 156 178 160 175 188 170
168 186 175 226 219 235 235 230 196 218 255 266 284 275 268 293 285 281 273 273 275 276 288 296 282 278 283 270 269 265 253 244 245 246 246 246 250 250 252 249 248 251 258 254 245 236 186 176 177 163 168 194 188 179
250 201 198 216 185 215 229 282 291 278 298 308 280 291 310 281 261 261 267 319 327 318 310 296 286 290 284 267 273 273 266 259 246 237 240 239 236 237 238 239 243 246 223 223 243 200 187 184 189 224 200 206 189 181
257 229 207 239 280 294 279 279 281 286 280 270 273 290 249 243 254 306 348 316 306 307 293 285 280 279 278 267 257 260 261 257 249 240 238 230 230 230 230 232 234 240 229 224 199 180 192 187 183 201 188 193 198 188
246 281 275 278 254 261 275 293 306 288 276 254 245 229 246 239 263 304 298 312 316 313 299 291 281 274 273 266 251 253 247 236 236 225 227 229 224 226 226 226 229 239 230 216 216 216 211 196 191 192 202 201 193 191
254 270 277 279 280 282 274 260 227 251 265 267 227 244 251 263 291 301 319 319 324 322 315 307 275 272 267 266 230 240 236 220 210 206 213 219 218 216 214 214 227 241 228 217 190 175 180 189 188 201 197 189 186 188
274 269 276 299 288 258 244 230 258 280 291 283 275 282 305 312 322 338 334 343 357 359 352 302 277 293 267 245 222 232 212 208 207 209 209 215 217 214 210 216 220 204 213 186 176 182 169 176 186 175 172 179 179 179
278 282 268 259 263 272 281 289 289 284 286 312 337 331 318 319 317 346 354 5 7 10 10 303 292 258 242 222 227 228 204 208 217 221 220 211 211 207 194 199 185 176 163 164 164 174 177 175 171 171 176 175 177 173
242 235 271 281 291 298 304 296 315 295 314 20 354 334 327 323 314 342 3 11 19 18 18 10 355 24 78 89 198 246 230 242 237 237 224 204 209 206 191 185 184 181 169 168 162 169 166 166 168 170 170 172 169 168
244 260 257 276 276 269 318 342 299 295 88 37 360 334 335 331 331 347 5 13 6 10 17 25 43 91 89 88 97 81 80 82 108 193 172 170 188 196 194 163 158 172 176 160 151 155 158 160 162 165 167 166 166 168
Wind_Speed_850mb
20 18 23 28 28 28 27 25 23 20 18 15 12 9 6 6 11 15 12 15 6 16 5 8 7 12 10 18 17 8 8 20 17 21 24 23 25 28 28 26 23 24 4 8 28 25 27 19 13 6 22 27 18 20
24 20 16 20 24 26 27 25 23 20 18 16 14 12 10 8 9 13 3 9 17 10 7 6 12 11 6 3 10 7 6 6 12 10 18 20 25 24 23 24 23 21 18 17 23 14 4 4 16 23 20 30 32 24
23 20 18 16 15 21 24 24 23 21 18 16 15 14 13 12 13 16 6 4 3 12 20 18 13 18 14 14 10 11 18 2 4 7 19 12 14 15 23 23 27 28 31 25 24 29 38 34 43 23 31 29 26 18
25 26 23 17 14 18 22 23 22 20 18 16 15 15 13 12 12 13 4 7 4 7 12 12 15 17 17 14 18 24 13 5 10 15 21 14 18 24 19 24 27 31 10 11 33 33 43 35 33 32 32 14 21 23
28 26 25 19 16 15 13 15 18 18 17 16 16 15 13 12 11 11 2 6 6 6 11 8 5 19 14 15 17 21 21 19 23 25 19 17 31 27 33 25 24 35 24 21 23 30 19 27 23 16 23 21 27 39
28 26 23 20 19 18 18 16 16 15 14 14 13 13 15 14 12 7 8 5 6 5 7 7 8 12 13 15 19 19 17 20 30 32 28 34 34 18 14 21 28 31 35 41 42 43 44 41 40 42 46 49 52 50
29 27 23 22 19 18 17 16 14 14 12 10 10 11 15 16 15 14 2 11 10 10 7 9 10 14 17 13 17 20 23 25 23 28 33 33 31 29 20 25 36 40 41 40 43 46 49 51 57 56 58 58 56 56
33 25 24 25 20 17 16 16 15 14 12 9 10 10 12 14 9 5 7 10 18 5 8 8 6 13 19 19 20 20 20 22 22 25 23 24 31 36 19 28 29 26 26 34 35 38 43 45 46 48 50 52 55 55
34 41 33 30 26 20 15 15 14 13 13 11 11 14 19 8 7 10 13 13 5 4 9 9 10 10 19 18 10 15 17 14 22 23 32 22 19 15 16 28 24 19 23 34 42 47 47 48 49 47 50 54 58 63
31 29 40 30 23 19 20 19 15 12 14 16 21 3 10 10 13 12 4 5 8 12 12 14 23 5 16 23 20 13 16 14 12 18 25 22 24 40 34 32 16 22 26 26 30 31 30 36 39 44 49 52 56 56
38 35 29 24 25 27 23 22 18 15 18 12 7 4 3 20 8 6 9 11 12 9 15 22 23 10 10 11 10 14 4 8 10 14 13 9 19 13 17 10 9 12 17 20 24 30 35 40 44 49 54 55 54 51
27 28 34 34 29 27 23 21 21 21 10 14 10 15 14 5 8 7 8 10 10 10 16 21 19 21 8 4 8 7 8 7 11 8 8 17 7 18 10 3 5 11 17 23 28 34 35 38 42 48 52 55 53 47
31 30 32 29 30 32 33 31 26 23 19 23 6 10 10 9 8 9 14 11 10 12 15 19 12 16 6 13 11 8 12 12 8 9 10 10 23 13 5 1 9 15 19 25 31 35 39 42 44 44 49 50 44 38
31 25 30 36 30 30 30 26 26 31 17 10 10 4 9 8 11 13 15 10 8 10 21 26 22 12 9 14 12 10 12 9 13 12 12 18 26 13 4 3 12 19 25 30 35 39 43 44 45 45 44 42 37 33
31 30 28 27 30 30 32 28 33 26 12 10 9 10 15 20 8 6 5 1 4 8 14 14 12 19 15 9 11 12 10 12 11 15 15 27 16 8 1 7 15 22 29 35 39 43 47 48 48 47 42 38 33 26
27 35 30 30 32 32 36 31 28 18 7 9 8 8 13 8 17 15 11 13 12 14 13 12 8 8 14 9 15 20 12 9 11 22 24 24 13 5 4 9 14 22 29 36 39 47 49 47 49 48 43 36 27 19
27 20 34 36 33 31 32 25 14 8 8 5 11 17 14 11 16 17 21 19 19 19 14 10 7 15 11 13 23 14 21 10 17 9 8 15 7 2 7 12 19 26 34 36 42 50 49 48 45 39 35 26 13 10
15 20 33 36 25 28 35 14 7 11 8 18 17 16 23 21 17 14 15 16 18 30 30 15 6 11 10 19 17 18 26 26 8 15 8 10 5 14 18 18 24 29 36 41 44 48 46 44 39 35 23 13 25 27
19 21 18 25 23 11 7 9 5 7 18 13 19 18 16 19 25 25 23 25 27 26 23 20 14 16 21 34 36 28 22 22 21 12 14 14 21 23 23 24 30 33 40 43 43 47 45 33 29 29 14 24 32 40
20 18 23 23 18 5 4 3 5 6 9 2 12 19 22 26 27 33 36 37 35 35 29 23 32 46 39 36 40 46 49 45 28 26 32 30 28 26 28 32 35 41 46 44 44 43 41 37 34 28 28 27 37 45
23 21 25 20 8 2 2 3 4 7 11 10 13 16 21 22 31 35 37 37 44 51 48 59 63 59 52 50 48 48 52 51 51 48 45 48 42 42 47 46 45 47 43 44 46 47 46 35 35 28 29 33 44 39
29 28 24 19 1 3 5 5 5 6 9 18 25 25 26 29 33 39 41 47 57 59 59 61 61 60 58 56 55 54 55 55 55 58 58 57 60 62 62 58 50 45 46 46 45 41 35 42 15 17 33 42 35 34
24 26 14 6 3 5 4 4 5 7 9 8 13 12 16 25 32 31 35 40 52 55 58 62 64 63 65 64 62 61 58 58 60 59 57 56 55 55 56 58 56 48 45 42 34 25 29 12 13 36 35 31 26 25
15 8 7 6 9 4 3 6 7 8 10 13 8 13 24 37 38 37 23 44 49 48 51 52 52 58 60 61 64 65 64 64 66 64 60 57 56 54 52 51 46 42 40 36 28 21 13 21 36 28 22 26 25 22
4 5 6 8 7 6 7 8 12 10 14 19 19 20 18 17 14 24 33 47 40 33 32 27 29 32 36 45 52 54 50 53 57 59 57 54 52 50 50 46 42 40 34 27 16 18 34 45 28 19 24 26 29 22
4 11 11 10 14 11 9 7 6 8 15 16 12 14 10 8 9 13 15 19 18 19 14 20 30 40 46 46 43 40 40 38 48 51 51 50 49 49 48 43 39 34 30 23 23 37 39 39 22 19 23 18 27 23
6 10 17 16 16 17 13 22 30 23 18 8 10 10 6 8 11 6 17 29 48 52 46 48 47 47 51 51 49 47 45 44 37 47 43 43 47 44 43 41 36 30 26 24 12 42 43 35 26 24 23 22 25 21
12 11 14 18 18 21 21 25 16 14 6 9 5 5 7 8 8 29 46 63 55 48 47 51 54 53 48 43 41 39 35 37 38 36 37 34 38 40 39 36 32 31 24 30 35 44 40 42 37 35 28 27 27 21
10 12 17 23 27 24 17 11 13 16 18 7 6 6 10 17 49 60 52 52 43 38 35 27 15 14 17 19 28 31 29 34 38 40 44 43 40 40 35 32 37 38 34 28 33 45 47 38 38 32 30 29 26 22
18 15 13 11 19 11 18 18 26 28 30 27 18 21 35 48 39 31 37 52 51 41 27 13 15 15 13 9 15 22 25 27 31 34 37 39 31 26 27 33 29 28 27 54 54 33 38 35 35 32 32 30 27 22
13 9 10 14 14 26 27 27 27 25 24 15 13 28 35 36 35 34 50 63 50 31 18 6 13 16 13 10 14 12 19 19 22 21 22 19 23 20 20 24 28 34 54 54 32 30 28 30 32 36 35 30 28 22
9 11 9 8 25 26 29 15 11 7 5 5 7 29 35 17 13 38 62 69 53 25 16 12 10 13 4 5 2 4 14 16 17 27 31 28 21 23 28 29 35 48 50 38 24 29 35 36 35 32 30 28 24 20
11 17 17 13 11 10 15 10 4 3 4 7 10 22 24 21 13 31 60 72 64 51 25 9 17 22 27 32 35 32 28 21 9 12 18 33 27 26 28 38 44 52 45 25 28 31 30 29 29 28 25 24 22 20
Wind_Direction_850mb
218 223 221 220 217 215 212 212 214 215 222 222 224 221 210 177 171 158 245 209 171 247 131 207 257 240 233 244 249 93 214 217 242 239 254 252 253 260 265 281 226 226 246 338 253 291 284 63 108 248 283 310 299 291
210 217 222 211 214 213 211 209 213 217 218 226 226 225 215 198 164 153 181 245 207 235 17 218 218 217 215 346 292 171 320 317 356 258 236 255 265 264 272 269 239 250 209 279 302 207 343 61 284 303 276 281 291 294
202 208 212 211 219 201 204 209 211 216 217 216 227 227 219 205 188 175 168 269 217 250 250 232 240 224 230 236 237 266 218 25 235 310 309 298 271 287 275 271 272 269 261 255 266 269 285 284 285 262 272 270 267 280
209 205 205 205 221 205 198 206 214 217 219 215 218 227 224 211 195 185 150 255 203 278 270 150 216 243 233 226 230 233 259 287 269 271 270 269 266 255 271 290 287 289 326 229 246 272 277 282 304 356 275 255 249 279
197 193 192 202 205 202 203 208 209 212 220 217 213 218 219 211 199 193 197 247 227 210 321 100 215 218 228 229 225 232 236 241 249 243 236 250 262 278 277 281 277 280 278 279 276 304 326 298 332 332 319 307 286 287
192 193 198 195 197 200 205 209 208 208 214 221 214 211 210 198 184 150 210 255 230 215 264 237 175 215 220 216 216 216 218 230 237 248 250 259 259 274 267 256 264 279 266 271 287 283 282 290 287 291 291 289 284 286
195 198 197 186 190 194 203 208 204 201 208 213 192 188 196 188 166 214 279 190 224 163 235 239 206 189 195 207 214 218 220 231 238 251 246 258 259 215 257 264 274 279 284 282 281 287 285 279 285 289 288 285 283 283
192 184 186 192 199 192 189 190 189 192 190 191 174 157 170 173 161 167 218 154 138 194 232 260 175 185 191 206 202 210 214 214 229 238 250 241 246 241 253 263 273 271 270 275 272 275 278 284 287 288 288 288 285 279
199 192 181 178 176 179 185 177 176 172 171 164 139 134 130 136 184 203 204 180 218 218 276 228 221 187 173 216 202 177 229 218 227 226 234 241 236 235 251 242 254 280 304 306 298 290 289 293 292 294 297 295 287 282
202 187 175 176 194 196 186 182 182 167 155 148 142 126 168 180 199 149 141 175 211 217 229 254 244 196 195 190 202 229 181 237 238 219 229 234 244 252 250 259 274 283 290 293 291 292 302 305 303 305 304 297 290 292
188 184 181 179 187 194 189 188 184 166 151 137 171 132 156 147 122 187 200 212 199 232 215 225 235 221 208 225 232 194 272 251 238 239 216 242 244 218 188 217 256 285 290 293 294 294 293 295 301 307 308 304 296 292
189 196 194 201 201 191 189 184 178 160 172 181 141 123 143 188 200 180 218 210 218 233 178 203 195 217 131 196 259 151 244 239 245 131 223 240 137 133 148 160 281 295 301 305 304 304 306 302 299 305 310 309 301 294
186 193 184 178 180 183 181 178 177 170 164 146 138 165 182 184 187 209 195 201 207 196 163 165 147 172 138 209 216 222 222 240 233 233 235 271 123 147 136 274 302 306 315 315 316 312 308 303 298 301 309 314 309 292
171 172 168 176 175 177 171 174 169 161 142 182 169 156 223 182 235 201 242 242 130 160 168 184 153 169 199 190 217 210 225 271 228 211 213 239 187 152 178 325 319 325 325 320 317 319 317 312 302 299 309 313 309 291
174 171 166 165 168 174 173 170 169 157 174 190 200 217 209 233 264 311 34 269 152 136 186 183 179 201 196 212 209 230 194 230 204 233 211 132 133 145 118 341 332 331 327 324 321 318 317 314 307 298 303 306 305 284
168 152 156 165 169 179 162 161 162 182 198 205 229 249 238 276 241 217 215 207 188 197 199 230 216 219 205 228 209 207 222 238 209 206 137 139 137 125 348 329 334 332 328 324 322 323 319 315 307 295 295 298 297 264
161 178 179 173 172 179 167 153 159 183 211 244 231 234 263 297 281 258 227 195 197 210 206 213 238 215 250 241 232 238 240 269 69 108 148 115 140 257 308 330 338 337 332 328 323 328 323 321 314 297 284 284 272 200
116 155 171 166 170 161 160 148 176 180 218 228 237 228 222 240 270 240 207 200 206 220 231 225 273 231 240 229 227 234 253 270 219 221 226 152 226 279 290 306 318 322 327 325 325 330 328 328 321 314 285 240 210 192
139 155 156 141 153 114 132 173 185 231 226 235 232 240 239 238 237 239 242 222 221 236 232 227 238 239 239 256 275 276 253 258 274 249 274 273 265 266 281 297 307 308 315 318 320 328 327 324 327 315 259 248 222 190
142 153 162 164 161 169 141 189 202 248 269 228 256 255 248 244 240 234 233 231 227 227 235 237 245 246 252 254 253 254 261 268 260 266 262 259 264 273 287 300 304 307 306 309 313 321 324 314 309 301 285 260 207 182
147 144 160 165 210 254 267 154 227 258 301 281 269 260 256 242 235 239 239 232 228 231 235 238 246 252 257 262 264 264 265 264 267 267 274 282 279 277 287 290 295 299 298 303 311 314 316 310 304 292 254 201 181 165
161 167 168 176 189 242 263 241 258 280 263 265 275 251 256 256 245 240 240 234 237 241 243 249 253 258 261 257 255 255 256 257 259 263 268 271 273 271 271 275 280 289 292 296 307 307 311 306 281 226 180 153 153 148
160 186 166 173 219 219 268 249 250 262 252 247 259 268 272 265 254 254 250 257 256 253 254 255 256 257 261 264 262 259 254 251 253 254 257 258 261 263 264 264 266 273 281 290 302 306 307 272 201 164 155 162 172 179
136 146 180 200 218 238 234 233 238 269 277 268 262 270 280 283 281 264 262 262 265 270 269 263 254 252 254 253 253 255 253 249 250 252 253 256 258 260 262 259 255 256 267 282 283 295 221 167 156 178 160 175 188 170
168 186 175 226 219 235 235 230 196 218 255 266 284 275 268 293 285 281 273 273 275 276 288 296 282 278 283 270 269 265 253 244 245 246 246 246 250 250 252 249 248 251 258 254 245 236 186 176 177 163 168 194 188 179
250 201 198 216 185 215 229 282 291 278 298 308 280 291 310 281 261 261 267 319 327 318 310 296 286 290 284 267 273 273 266 259 246 237 240 239 236 237 238 239 243 246 223 223 243 200 187 184 189 224 200 206 189 181
257 229 207 239 280 294 279 279 281 286 280 270 273 290 249 243 254 306 348 316 306 307 293 285 280 279 278 267 257 260 261 257 249 240 238 230 230 230 230 232 234 240 229 224 199 180 192 187 183 201 188 193 198 188
246 281 275 278 254 261 275 293 306 288 276 254 245 229 246 239 263 304 298 312 316 313 299 291 281 274 273 266 251 253 247 236 236 225 227 229 224 226 226 226 229 239 230 216 216 216 211 196 191 192 202 201 193 191
254 270 277 279 280 282 274 260 227 251 265 267 227 244 251 263 291 301 319 319 324 322 315 307 275 272 267 266 230 240 236 220 210 206 213 219 218 216 214 214 227 241 228 217 190 175 180 189 188 201 197 189 186 188
274 269 276 299 288 258 244 230 258 280 291 283 275 282 305 312 322 338 334 343 357 359 352 302 277 293 267 245 222 232 212 208 207 209 209 215 217 214 210 216 220 204 213 186 176 182 169 176 186 175 172 179 179 179
278 282 268 259 263 272 281 289 289 284 286 312 337 331 318 319 317 346 354 5 7 10 10 303 292 258 242 222 227 228 204 208 217 221 220 211 211 207 194 199 185 176 163 164 164 174 177 175 171 171 176 175 177 173
242 235 271 281 291 298 304 296 315 295 314 20 354 334 327 323 314 342 3 11 19 18 18 10 355 24 78 89 198 246 230 242 237 237 224 204 209 206 191 185 184 181 169 168 162 169 166 166 168 170 170 172 169 168
244 260 257 276 276 269 318 342 299 295 88 37 360 334 335 331 331 347 5 13 6 10 17 25 43 91 89 88 97 81 80 82 108 193 172 170 188 196 194 163 158 172 176 160 151 155 158 160 162 165 167 166 166 168